EW0923 Weather Reports


Display with metric or nautical units.
time (UTC)temp
F
wind
direction
speed
MPH
gust
MPH
rain 1hr
in
rain 24hr
in
rain mn
in
humidity
%
barometer
mb
20260905161030 79 300 3.0 8.0 0.00 0.01 0.01 55 1010.7
20260905160524 79 66 2.0 8.0 0.00 0.01 0.01 57 1010.6
20260905160042 79 301 2.0 5.0 0.00 0.01 0.01 55 1010.7
20260905155523 80 274 1.0 5.0 0.00 0.01 0.01 57 1010.8
20260905155024 79 72 1.0 5.0 0.00 0.01 0.01 57 1010.8
20260905154556 78 28 1.0 5.0 0.00 0.01 0.01 58 1010.9
20260905154025 79 279 0.0 8.0 0.00 0.01 0.01 59 1010.8
20260905153528 78 325 3.0 9.0 0.00 0.01 0.01 58 1010.8
20260905153046 78 323 3.0 10.0 0.00 0.01 0.01 59 1010.9
20260905152530 78 347 3.0 10.0 0.00 0.01 0.01 59 1011.0
20260905152025 77 264 3.0 11.0 0.00 0.01 0.01 61 1011.0
20260905151609 78 310 3.0 11.0 0.00 0.01 0.01 59 1011.0
20260905151028 78 331 2.0 6.0 0.00 0.01 0.01 59 1010.9
20260905150527 78 335 1.0 6.0 0.00 0.01 0.01 62 1011.0
20260905150041 78 61 2.0 6.0 0.00 0.01 0.01 63 1010.9
20260905145525 76 301 0.0 9.0 0.00 0.01 0.01 65 1010.9
20260905145027 75 321 3.0 9.0 0.00 0.01 0.01 64 1010.8
20260905144549 76 350 3.0 6.0 0.00 0.01 0.01 65 1011.0
20260905144027 76 325 1.0 8.0 0.00 0.01 0.01 66 1010.8
20260905143525 75 309 2.0 8.0 0.00 0.01 0.01 66 1010.7
20260905143048 75 290 1.0 10.0 0.00 0.01 0.01 68 1010.8
20260905142530 75 319 3.0 10.0 0.00 0.01 0.01 66 1010.7
20260905142024 75 335 3.0 8.0 0.00 0.01 0.01 67 1010.7
20260905141555 75 0 1.0 4.0 0.00 0.01 0.01 70 1010.8
20260905141027 74 0 0.0 4.0 0.00 0.01 0.01 72 1010.7
20260905140527 74 269 2.0 9.0 0.00 0.01 0.01 70 1010.7
20260905140054 73 327 3.0 9.0 0.00 0.01 0.01 69 1010.6
20260905135530 73 311 1.0 6.0 0.00 0.01 0.01 70 1010.6
20260905135025 73 348 2.0 6.0 0.00 0.01 0.01 69 1010.5
20260905134548 73 343 1.0 8.0 0.00 0.01 0.01 69 1010.3
20260905134024 73 331 1.0 8.0 0.00 0.01 0.01 71 1010.4
20260905133528 73 330 3.0 8.0 0.00 0.01 0.01 70 1010.5
20260905133047 72 321 1.0 4.0 0.00 0.01 0.01 71 1010.6
20260905132529 72 320 1.0 6.0 0.00 0.01 0.01 71 1010.5
20260905132029 72 313 2.0 6.0 0.00 0.01 0.01 72 1010.3
20260905131602 72 9 2.0 5.0 0.00 0.01 0.01 72 1010.4
20260905131030 72 321 1.0 5.0 0.00 0.01 0.01 72 1010.5
20260905130527 72 333 2.0 9.0 0.00 0.01 0.01 72 1010.4
20260905130057 72 325 3.0 9.0 0.00 0.01 0.01 71 1010.3
20260905125529 72 333 1.0 4.0 0.00 0.01 0.01 72 1010.4
20260905125029 72 335 2.0 4.0 0.00 0.01 0.01 72 1010.6
20260905124547 72 316 1.0 4.0 0.00 0.01 0.01 72 1010.6
20260905124032 72 309 1.0 2.0 0.00 0.01 0.01 73 1010.7
20260905123527 72 0 0.0 3.0 0.00 0.01 0.01 73 1010.7
20260905123105 72 339 0.0 3.0 0.00 0.01 0.01 73 1010.7
20260905122529 71 0 1.0 5.0 0.00 0.01 0.01 73 1010.7
20260905122033 71 338 2.0 6.0 0.00 0.01 0.01 73 1010.7
20260905121554 71 317 1.0 6.0 0.00 0.01 0.01 74 1010.8
20260905121030 71 332 2.0 6.0 0.00 0.01 0.01 75 1010.9
20260905120528 71 333 1.0 3.0 0.00 0.01 0.01 76 1010.8
20260905120057 71 327 1.0 2.0 0.00 0.01 0.01 76 1010.7
20260905115533 71 325 1.0 2.0 0.00 0.01 0.01 76 1010.7
20260905115030 71 0 0.0 2.0 0.00 0.01 0.01 77 1010.6
20260905114550 71 51 0.0 2.0 0.00 0.01 0.01 76 1010.3
20260905114027 71 55 0.0 2.0 0.00 0.01 0.01 77 1010.3
20260905113527 71 51 0.0 2.0 0.00 0.01 0.01 78 1010.2
20260905113049 71 0 0.0 2.0 0.00 0.01 0.01 79 1010.2
20260905112529 70 315 0.0 2.0 0.00 0.01 0.01 78 1010.2
20260905112030 70 334 1.0 2.0 0.00 0.01 0.01 78 1010.2
20260905111555 70 338 0.0 2.0 0.00 0.01 0.01 79 1010.3
20260905111029 70 339 0.0 3.0 0.00 0.01 0.01 78 1010.1
20260905110529 70 306 0.0 3.0 0.00 0.01 0.01 79 1010.1
20260905110046 70 0 0.0 1.0 0.00 0.01 0.01 81 1010.0
20260905105529 70 0 0.0 1.0 0.00 0.01 0.01 79 1009.7
20260905105029 70 324 0.0 1.0 0.00 0.01 0.01 80 1009.8
20260905104545 71 0 0.0 1.0 0.00 0.01 0.01 80 1009.8
20260905104028 71 0 0.0 1.0 0.00 0.01 0.01 80 1009.7
20260905103528 71 0 0.0 1.0 0.00 0.01 0.01 80 1009.6
20260905103056 71 0 0.0 1.0 0.00 0.01 0.01 79 1009.7
20260905102526 71 0 0.0 2.0 0.00 0.01 0.01 80 1009.5
20260905102029 71 0 0.0 2.0 0.00 0.01 0.01 81 1009.5
20260905101548 70 321 0.0 5.0 0.00 0.01 0.01 82 1009.6
20260905101030 70 0 1.0 5.0 0.00 0.01 0.01 84 1009.5
20260905100528 70 333 1.0 5.0 0.00 0.01 0.01 86 1009.5
20260905100106 70 0 0.0 0.0 0.00 0.01 0.01 89 1009.5
20260905095528 70 0 0.0 0.0 0.00 0.01 0.01 89 1009.5
20260905095028 70 0 0.0 0.0 0.00 0.01 0.01 88 1009.4
20260905094552 70 0 0.0 0.0 0.00 0.01 0.01 87 1009.4
20260905094032 71 318 0.0 1.0 0.00 0.01 0.01 86 1009.5
20260905093528 71 0 0.0 2.0 0.00 0.01 0.01 86 1009.5
20260905093049 71 317 0.0 2.0 0.00 0.01 0.01 87 1009.4
20260905092529 71 317 0.0 0.0 0.00 0.01 0.01 87 1009.4
20260905092029 71 0 0.0 1.0 0.00 0.01 0.01 87 1009.5
20260905091552 71 0 0.0 1.0 0.00 0.01 0.01 88 1009.5
20260905091029 71 0 0.0 3.0 0.00 0.01 0.01 88 1009.5
20260905090528 70 0 0.0 3.0 0.00 0.01 0.01 89 1009.5
20260905090047 70 330 1.0 3.0 0.00 0.01 0.01 91 1009.5
20260905085529 70 319 0.0 1.0 0.00 0.01 0.01 93 1009.5
20260905085029 70 319 0.0 1.0 0.00 0.01 0.01 94 1009.5
20260905084605 70 0 0.0 1.0 0.00 0.01 0.01 94 1009.5
20260905084028 70 0 0.0 1.0 0.00 0.01 0.01 94 1009.4
20260905083535 70 17 0.0 1.0 0.00 0.01 0.01 94 1009.5
20260905083051 70 0 0.0 0.0 0.00 0.01 0.01 94 1009.3
20260905082526 70 0 0.0 0.0 0.00 0.01 0.01 94 1009.3
20260905082029 70 0 0.0 0.0 0.00 0.01 0.01 94 1009.4
20260905081547 70 0 0.0 0.0 0.00 0.01 0.01 94 1009.4
20260905081029 70 0 0.0 0.0 0.00 0.01 0.01 94 1009.4
20260905080529 70 0 0.0 0.0 0.00 0.01 0.01 94 1009.4
20260905080112 70 0 0.0 0.0 0.00 0.01 0.01 93 1009.4
20260905075529 70 0 0.0 0.0 0.00 0.01 0.01 93 1009.4
20260905075029 70 0 0.0 0.0 0.00 0.01 0.01 93 1009.4
20260905074545 70 0 0.0 1.0 0.00 0.01 0.01 93 1009.4
20260905074028 71 0 0.0 1.0 0.00 0.01 0.01 94 1009.4
20260905073528 71 0 0.0 1.0 0.00 0.01 0.01 94 1009.4
20260905073048 71 0 0.0 0.0 0.00 0.01 0.01 94 1009.5
20260905072528 71 0 0.0 0.0 0.00 0.01 0.01 94 1009.5
20260905072028 71 0 0.0 0.0 0.00 0.01 0.01 94 1009.5
20260905071547 71 0 0.0 0.0 0.00 0.01 0.01 94 1009.5
20260905071023 71 0 0.0 1.0 0.00 0.01 0.01 94 1009.5
20260905070528 71 0 0.0 1.0 0.00 0.01 0.01 93 1009.6
20260905070053 71 0 0.0 0.0 0.00 0.01 0.01 93 1009.6
20260905065527 71 0 0.0 0.0 0.00 0.01 0.01 93 1009.5
20260905065025 71 0 0.0 0.0 0.00 0.01 0.01 93 1009.6
20260905064552 71 0 0.0 0.0 0.00 0.01 0.01 93 1009.6
20260905064025 71 0 0.0 0.0 0.00 0.01 0.01 93 1009.6
20260905063525 71 0 0.0 0.0 0.00 0.01 0.01 93 1009.7
20260905063049 71 0 0.0 0.0 0.00 0.01 0.01 93 1009.9
20260905062524 71 0 0.0 0.0 0.00 0.01 0.01 92 1009.9
20260905062024 71 0 0.0 0.0 0.00 0.01 0.01 92 1010.0
20260905061555 71 0 0.0 0.0 0.00 0.01 0.01 92 1010.0
20260905061027 71 0 0.0 0.0 0.00 0.01 0.01 92 1010.0
20260905060524 71 0 0.0 0.0 0.00 0.01 0.01 91 1010.0
20260905060100 71 0 0.0 0.0 0.00 0.01 0.01 91 1010.0
20260905055526 71 0 0.0 0.0 0.00 0.01 0.01 91 1010.1
20260905055026 71 0 0.0 0.0 0.00 0.01 0.01 91 1010.1
20260905054552 71 0 0.0 1.0 0.00 0.01 0.01 90 1010.1
20260905054030 72 0 0.0 1.0 0.00 0.01 0.01 89 1010.2
20260905053524 72 44 0.0 0.0 0.00 0.01 0.01 89 1010.2
20260905053056 72 0 0.0 0.0 0.00 0.01 0.01 89 1010.2
20260905052527 72 0 0.0 3.0 0.00 0.01 0.01 87 1010.2
20260905052028 72 0 0.0 3.0 0.01 0.01 0.01 87 1010.1
20260905051555 73 39 0.0 1.0 0.01 0.01 0.01 91 1010.2
20260905051027 73 0 0.0 1.0 0.01 0.01 0.01 91 1010.1
20260905050526 73 0 0.0 1.0 0.01 0.01 0.01 91 1010.4
20260905050046 74 0 0.0 0.0 0.01 0.01 0.01 92 1010.3
20260905045524 74 0 0.0 0.0 0.01 0.11 0.01 93 1010.4
20260905045030 74 0 0.0 1.0 0.01 0.11 0.01 93 1010.2
20260905044546 74 0 0.0 1.0 0.01 0.11 0.01 92 1010.2
20260905044024 74 0 0.0 0.0 0.01 0.11 0.01 92 1010.3
20260905043525 74 0 0.0 1.0 0.01 0.11 0.01 92 1010.4
20260905043108 74 0 0.0 1.0 0.01 0.11 0.01 92 1010.4
20260905042559 74 0 0.0 0.0 0.01 0.11 0.01 92 1010.6
20260905042026 74 0 0.0 0.0 0.00 0.10 0.00 91 1010.4
20260905041551 75 0 0.0 0.0 0.00 0.10 0.00 91 1010.3
20260905041024 75 0 0.0 0.0 0.00 0.10 0.00 90 1010.3
20260905040528 75 0 0.0 0.0 0.00 0.10 0.00 89 1010.3
20260905040050 75 0 0.0 0.0 0.00 0.10 0.00 88 1010.3
20260905035525 76 0 0.0 0.0 0.00 0.10 0.10 87 1010.4
20260905035026 76 0 0.0 0.0 0.00 0.10 0.10 87 1010.3
20260905034559 76 0 0.0 0.0 0.00 0.10 0.10 86 1010.3
20260905034028 76 0 0.0 0.0 0.00 0.10 0.10 87 1010.3
20260905033526 76 0 0.0 0.0 0.00 0.10 0.10 86 1010.3
20260905033047 76 0 0.0 0.0 0.00 0.10 0.10 86 1010.3
20260905032526 76 0 0.0 0.0 0.00 0.10 0.10 86 1010.3
20260905032026 76 0 0.0 0.0 0.00 0.10 0.10 86 1010.2
20260905031547 76 0 0.0 0.0 0.00 0.10 0.10 86 1010.3
20260905031024 76 0 0.0 0.0 0.00 0.10 0.10 86 1010.3
20260905030525 76 0 0.0 0.0 0.00 0.10 0.10 86 1010.2
20260905030058 76 0 0.0 0.0 0.00 0.10 0.10 85 1010.3
20260905025524 76 0 0.0 0.0 0.00 0.10 0.10 85 1010.2
20260905025027 76 0 0.0 0.0 0.00 0.10 0.10 85 1010.3
20260905024547 76 0 0.0 0.0 0.00 0.10 0.10 85 1010.2
20260905024026 76 0 0.0 0.0 0.00 0.10 0.10 85 1010.2
20260905023532 76 0 0.0 0.0 0.00 0.10 0.10 85 1010.2
20260905023059 76 0 0.0 0.0 0.00 0.10 0.10 85 1010.3
20260905022529 76 0 0.0 0.0 0.00 0.10 0.10 85 1010.4
20260905022026 76 0 0.0 1.0 0.00 0.10 0.10 85 1010.3
20260905021551 76 0 0.0 1.0 0.00 0.10 0.10 84 1010.3
20260905021027 76 273 0.0 1.0 0.00 0.10 0.10 85 1010.3
20260905020527 76 0 0.0 0.0 0.00 0.10 0.10 85 1010.2
20260905020056 76 0 0.0 0.0 0.00 0.10 0.10 85 1010.3
20260905015524 76 0 0.0 0.0 0.00 0.10 0.10 85 1010.2
20260905015029 76 0 0.0 0.0 0.00 0.10 0.10 85 1010.1
20260905014553 76 0 0.0 0.0 0.00 0.10 0.10 84 1010.1
20260905014029 76 0 0.0 0.0 0.00 0.10 0.10 84 1010.2
20260905013526 76 0 0.0 0.0 0.00 0.10 0.10 84 1010.3
20260905013048 76 0 0.0 0.0 0.00 0.10 0.10 84 1010.2
20260905012527 76 0 0.0 0.0 0.00 0.10 0.10 83 1010.2
20260905012025 76 0 0.0 0.0 0.00 0.10 0.10 83 1010.2
20260905011609 76 0 0.0 0.0 0.00 0.10 0.10 83 1010.2
20260905011025 76 0 0.0 0.0 0.00 0.10 0.10 83 1010.2
20260905010526 76 0 0.0 0.0 0.00 0.10 0.10 83 1010.3
20260905010046 77 0 0.0 1.0 0.00 0.10 0.10 83 1010.5
20260905005525 77 0 0.0 1.0 0.00 0.10 0.10 83 1010.4
20260905005025 76 0 0.0 0.0 0.00 0.10 0.10 83 1010.3
20260905004551 76 0 0.0 0.0 0.00 0.10 0.10 83 1010.4
20260905004028 77 0 0.0 0.0 0.00 0.10 0.10 83 1010.3
20260905003527 77 0 0.0 0.0 0.00 0.10 0.10 82 1010.3
20260905003054 77 0 0.0 0.0 0.00 0.10 0.10 82 1010.1
20260905002526 77 0 0.0 0.0 0.00 0.10 0.10 81 1010.0
20260905002028 77 0 0.0 0.0 0.00 0.10 0.10 81 1010.1
20260905001557 77 0 0.0 0.0 0.00 0.10 0.10 81 1009.9
20260905001026 77 0 0.0 0.0 0.00 0.10 0.10 80 1010.0
20260905000525 77 0 0.0 0.0 0.00 0.10 0.10 79 1009.9
20260905000048 78 0 0.0 0.0 0.00 0.10 0.10 79 1009.8
20260904235527 78 0 0.0 0.0 0.00 0.10 0.10 77 1009.8
20260904235026 78 0 0.0 0.0 0.00 0.10 0.10 77 1009.9
20260904234554 79 0 0.0 0.0 0.00 0.10 0.10 76 1009.9
20260904234026 79 0 0.0 0.0 0.00 0.10 0.10 76 1010.0
20260904233530 79 0 0.0 1.0 0.00 0.10 0.10 75 1010.0
20260904233058 80 0 0.0 1.0 0.00 0.10 0.10 74 1009.9
20260904232530 80 0 0.0 1.0 0.00 0.10 0.10 73 1010.0
20260904232024 80 0 0.0 1.0 0.00 0.10 0.10 72 1009.9
20260904231546 80 0 0.0 1.0 0.00 0.10 0.10 71 1010.1
20260904231025 81 0 0.0 1.0 0.00 0.10 0.10 72 1010.2
20260904230528 81 0 0.0 1.0 0.00 0.10 0.10 71 1010.1
20260904230048 81 0 0.0 1.0 0.00 0.10 0.10 70 1010.1
20260904225525 81 0 0.0 1.0 0.00 0.10 0.10 70 1010.1
20260904225028 81 0 0.0 1.0 0.00 0.10 0.10 69 1010.3
20260904224550 82 0 0.0 1.0 0.00 0.10 0.10 69 1010.3
20260904224026 82 0 0.0 1.0 0.00 0.10 0.10 68 1010.1
20260904223527 82 0 0.0 3.0 0.00 0.10 0.10 67 1010.1
20260904223047 82 0 0.0 4.0 0.00 0.10 0.10 68 1010.0
20260904222524 82 0 0.0 4.0 0.00 0.10 0.10 67 1010.0
20260904222026 82 290 0.0 5.0 0.00 0.10 0.10 66 1010.1
20260904221547 83 284 0.0 7.0 0.00 0.10 0.10 66 1010.2
20260904221026 83 0 1.0 7.0 0.00 0.10 0.10 66 1010.1
20260904220525 83 269 1.0 6.0 0.00 0.10 0.10 65 1010.1
20260904220100 83 296 0.0 3.0 0.00 0.10 0.10 64 1010.2
20260904215528 83 292 1.0 3.0 0.00 0.10 0.10 65 1010.3
20260904215025 83 290 1.0 3.0 0.00 0.10 0.10 64 1010.3
20260904214541 83 291 1.0 3.0 0.00 0.10 0.10 64 1010.3
20260904214027 83 271 1.0 4.0 0.00 0.10 0.10 63 1010.3
20260904213529 84 306 1.0 4.0 0.00 0.10 0.10 63 1010.5
20260904213051 84 273 1.0 4.0 0.00 0.10 0.10 62 1010.6
20260904212529 84 286 1.0 3.0 0.00 0.10 0.10 61 1010.5
20260904212027 85 288 1.0 4.0 0.00 0.10 0.10 61 1010.3
20260904211547 85 292 1.0 4.0 0.00 0.10 0.10 60 1010.1
20260904211024 85 289 1.0 4.0 0.00 0.10 0.10 61 1010.0
20260904210525 85 98 1.0 5.0 0.00 0.10 0.10 61 1010.0
20260904210056 85 281 2.0 5.0 0.00 0.10 0.10 60 1009.9
20260904205529 85 239 1.0 4.0 0.00 0.10 0.10 60 1009.9
20260904205028 85 273 1.0 4.0 0.00 0.10 0.10 59 1009.9
20260904204547 85 277 1.0 4.0 0.00 0.10 0.10 61 1010.1
20260904204027 85 335 1.0 4.0 0.00 0.10 0.10 61 1010.1
20260904203526 85 292 1.0 4.0 0.00 0.10 0.10 62 1010.3
20260904203058 85 271 0.0 4.0 0.00 0.10 0.10 62 1010.2
20260904202524 85 273 1.0 6.0 0.00 0.10 0.10 61 1010.3
20260904202026 86 293 1.0 6.0 0.00 0.10 0.10 61 1010.3
20260904201557 86 294 1.0 3.0 0.00 0.10 0.10 62 1010.3
20260904201031 85 282 1.0 7.0 0.00 0.10 0.10 62 1010.3
20260904200528 85 300 0.0 7.0 0.00 0.10 0.10 61 1010.3
20260904200053 85 280 2.0 7.0 0.00 0.10 0.10 60 1010.3
20260904195527 86 313 2.0 4.0 0.00 0.10 0.10 59 1010.4
20260904195026 87 296 0.0 4.0 0.00 0.10 0.10 60 1010.6
20260904194551 86 298 1.0 4.0 0.00 0.10 0.10 60 1010.6
20260904194031 86 263 0.0 2.0 0.00 0.10 0.10 60 1010.6
20260904193525 86 13 0.0 3.0 0.00 0.10 0.10 59 1010.8
20260904193047 85 284 0.0 3.0 0.00 0.10 0.10 61 1010.8
20260904192532 85 275 1.0 4.0 0.00 0.10 0.10 60 1010.8
20260904192025 85 273 1.0 4.0 0.00 0.10 0.10 60 1010.9
20260904191543 85 274 1.0 4.0 0.00 0.10 0.10 61 1011.0
20260904191028 85 295 1.0 4.0 0.00 0.10 0.10 61 1011.1
20260904190528 85 289 1.0 4.0 0.00 0.10 0.10 61 1011.2
20260904190047 85 335 0.0 8.0 0.00 0.10 0.10 60 1011.3
20260904185529 85 300 1.0 8.0 0.00 0.10 0.10 60 1011.3
20260904185029 85 30 3.0 8.0 0.00 0.10 0.10 59 1011.4
20260904184547 86 298 1.0 12.0 0.00 0.10 0.10 59 1011.5
20260904184031 86 284 1.0 12.0 0.00 0.10 0.10 58 1011.4
20260904183532 87 304 3.0 11.0 0.00 0.10 0.10 58 1011.5
20260904183100 87 298 1.0 7.0 0.00 0.10 0.10 58 1011.5
20260904182529 87 274 2.0 7.0 0.00 0.10 0.10 58 1011.5
20260904182033 86 282 2.0 4.0 0.00 0.10 0.10 59 1011.6
20260904181551 86 327 1.0 4.0 0.00 0.10 0.10 60 1011.5
20260904181028 86 300 1.0 5.0 0.00 0.10 0.10 59 1011.5
20260904180530 86 293 2.0 8.0 0.00 0.10 0.10 59 1011.3
20260904180058 85 259 1.0 9.0 0.00 0.10 0.10 58 1011.4
20260904175530 86 309 3.0 9.0 0.00 0.10 0.10 59 1011.3
20260904175028 86 329 1.0 8.0 0.00 0.10 0.10 59 1011.5
20260904174552 87 327 2.0 6.0 0.00 0.10 0.10 58 1011.4
20260904174030 86 321 1.0 8.0 0.00 0.10 0.10 58 1011.4
20260904173528 86 292 3.0 8.0 0.00 0.10 0.10 59 1011.4
20260904173112 86 346 2.0 7.0 0.00 0.10 0.10 58 1011.5
20260904172529 86 301 1.0 8.0 0.00 0.10 0.10 60 1011.4
20260904172029 86 303 2.0 8.0 0.00 0.10 0.10 60 1011.6
20260904171553 86 330 2.0 8.0 0.00 0.10 0.10 60 1011.6
20260904171028 87 314 1.0 9.0 0.00 0.10 0.10 60 1011.6
20260904170529 86 289 2.0 9.0 0.00 0.10 0.10 62 1011.5
20260904170105 86 265 1.0 9.0 0.00 0.10 0.10 61 1011.5
20260904165529 85 312 4.0 9.0 0.00 0.10 0.10 61 1011.6
20260904165029 85 324 2.0 7.0 0.00 0.10 0.10 61 1011.6
20260904164556 85 318 3.0 7.0 0.00 0.10 0.10 60 1011.5
20260904164028 85 300 3.0 7.0 0.00 0.10 0.10 63 1011.5
20260904163534 85 296 1.0 6.0 0.00 0.10 0.10 63 1011.5
20260904163051 86 273 1.0 5.0 0.00 0.10 0.10 62 1011.5
20260904162526 86 327 2.0 9.0 0.00 0.10 0.10 61 1011.6
20260904162028 86 346 3.0 9.0 0.00 0.10 0.10 60 1011.6
20260904161548 86 71 1.0 9.0 0.00 0.10 0.10 62 1011.6